Overview Statistics Trail Chart Weather Telemetry Raw packets
 

This is the latest recevied weather packets stored in our database for station/object OE5MMP-13. If no packets are shown the sender has not sent any weather packets the latest 10 day(s).

<< 24 25 26 27 28 29 30 >>
Time Temp. Humidity Pressure Rain* Wind** Luminosity Snow
1788312191 17.22° C 67% 1022.4 hPa 0 mm - 0 W/m² -
1788311592 16.67° C 68% 1022.4 hPa 0 mm - 0 W/m² -
1788310992 16.67° C 68% 1022.4 hPa 0 mm - 0 W/m² -
1788310391 17.22° C 68% 1022.5 hPa 0 mm - 0 W/m² -
1788309791 16.11° C 71% 1022.2 hPa 0 mm - 0 W/m² -
1788309191 16.11° C 72% 1022.2 hPa 0 mm - 0 W/m² -
1788308591 16.11° C 70% 1022.3 hPa 0 mm - 0 W/m² -
1788307991 16.67° C 70% 1022.3 hPa 0 mm - 0 W/m² -
1788307391 16.11° C 71% 1022.4 hPa 0 mm - 0 W/m² -
1788306791 16.11° C 73% 1022.2 hPa 0 mm - 0 W/m² -
1788306191 15.56° C 74% 1022.1 hPa 0 mm - 0 W/m² -
1788305591 16.11° C 73% 1022.3 hPa 0 mm - 0 W/m² -
1788304992 16.11° C 72% 1022.3 hPa 0 mm - 0 W/m² -
1788304391 16.11° C 71% 1022.3 hPa 0 mm - 0 W/m² -
1788303791 16.11° C 71% 1022.4 hPa 0 mm - 0 W/m² -
1788303192 16.11° C 71% 1022.4 hPa 0 mm - 0 W/m² -
1788302591 16.11° C 72% 1022.5 hPa 0 mm - 0 W/m² -
1788301991 16.11° C 72% 1022.4 hPa 0 mm - 0 W/m² -
1788301391 15.56° C 73% 1022.4 hPa 0 mm - 0 W/m² -
1788300791 16.11° C 72% 1022.4 hPa 0 mm - 0 W/m² -
1788300191 16.67° C 71% 1022.4 hPa 0 mm - 0 W/m² -
1788299592 16.67° C 70% 1022.4 hPa 0 mm - 0 W/m² -
1788298992 16.67° C 70% 1022.4 hPa 0 mm - 0 W/m² -
1788298392 16.67° C 70% 1022.4 hPa 0 mm - 0 W/m² -
1788297792 16.67° C 70% 1022.3 hPa 0 mm - 0 W/m² -

* Rain latest hour (hover to see other rain measurements)
** Current wind speed in m/s (hover to see current wind gust speed)